Time,TemperatureF,DewpointF,PressureIn,WindDirection,WindDirectionDegrees,WindSpeedMPH,WindSpeedGustMPH,Humidity,HourlyPrecipIn,Conditions,Clouds,dailyrainin,SoftwareType,DateUTC
2013-12-08 00:01:00,41.1,38.4,30.26,NE,39,2.0,11.0,90,0.00,,,0.00,Wunderground v.1.15,2013-12-08 05:01:00,
2013-12-08 00:02:00,41.1,38.4,30.26,NE,40,3.0,12.0,90,0.00,,,0.00,Wunderground v.1.15,2013-12-08 05:02:00,
2013-12-08 00:04:00,41.1,38.4,30.26,NW,325,2.0,2.0,90,0.00,,,0.00,Wunderground v.1.15,2013-12-08 05:04:00,
2013-12-08 00:05:00,41.1,38.4,30.26,ENE,70,2.0,3.0,90,0.00,,,0.00,Wunderground v.1.15,2013-12-08 05:05:00,
2013-12-08 00:07:00,41.1,38.4,30.26,NNE,25,2.0,12.0,90,0.00,,,0.00,Wunderground v.1.15,2013-12-08 05:07:00,
2013-12-08 00:10:00,41.1,38.4,30.26,SSE,148,2.0,12.0,90,0.00,,,0.00,Wunderground v.1.15,2013-12-08 05:10:00,
2013-12-08 00:15:00,41.1,38.4,30.26,SE,140,2.0,3.0,90,0.00,,,0.00,Wunderground v.1.15,2013-12-08 05:15:00,
2013-12-08 00:21:00,40.9,38.2,30.26,East,92,2.0,12.0,90,0.00,,,0.00,Wunderground v.1.15,2013-12-08 05:21:00,
2013-12-08 00:26:00,40.9,38.2,30.26,NE,34,2.0,12.0,90,0.00,,,0.00,Wunderground v.1.15,2013-12-08 05:26:00,
2013-12-08 00:32:00,40.9,38.2,30.26,SE,124,2.0,12.0,90,0.00,,,0.00,Wunderground v.1.15,2013-12-08 05:32:00,
2013-12-08 00:37:00,40.8,38.1,30.26,ENE,58,2.0,10.0,90,0.00,,,0.00,Wunderground v.1.15,2013-12-08 05:37:00,
2013-12-08 00:42:00,40.8,38.1,30.26,ESE,116,2.0,10.0,90,0.00,,,0.00,Wunderground v.1.15,2013-12-08 05:42:00,
2013-12-08 00:49:00,40.8,38.1,30.25,NE,47,3.0,10.0,90,0.00,,,0.00,Wunderground v.1.15,2013-12-08 05:49:00,
2013-12-08 00:54:00,40.8,38.1,30.25,ENE,58,5.0,10.0,90,0.00,,,0.00,Wunderground v.1.15,2013-12-08 05:54:00,
2013-12-08 01:00:00,40.9,37.9,30.25,ENE,76,4.0,10.0,89,0.00,,,0.00,Wunderground v.1.15,2013-12-08 06:00:00,
2013-12-08 01:06:00,40.9,37.9,30.25,ENE,61,4.0,15.0,89,0.00,,,0.00,Wunderground v.1.15,2013-12-08 06:06:00,
2013-12-08 01:11:00,40.9,37.9,30.25,ENE,71,3.0,15.0,89,0.00,,,0.00,Wunderground v.1.15,2013-12-08 06:11:00,
2013-12-08 01:17:00,40.9,37.9,30.25,NE,53,3.0,15.0,89,0.00,,,0.00,Wunderground v.1.15,2013-12-08 06:17:00,
2013-12-08 01:22:00,40.8,37.8,30.25,ENE,60,3.0,15.0,89,0.00,,,0.00,Wunderground v.1.15,2013-12-08 06:22:00,
2013-12-08 01:28:00,40.6,37.6,30.25,NE,49,4.0,15.0,89,0.00,,,0.00,Wunderground v.1.15,2013-12-08 06:28:00,
2013-12-08 01:33:00,40.5,37.5,30.24,ENE,59,4.0,15.0,89,0.00,,,0.00,Wunderground v.1.15,2013-12-08 06:33:00,
2013-12-08 01:38:00,40.5,37.5,30.24,NE,52,5.0,14.0,89,0.00,,,0.00,Wunderground v.1.15,2013-12-08 06:38:00,
2013-12-08 01:44:00,40.3,37.3,30.24,NE,38,5.0,5.0,89,0.00,,,0.00,Wunderground v.1.15,2013-12-08 06:44:00,
2013-12-08 01:49:00,40.2,37.5,30.24,NE,42,4.0,14.0,90,0.00,,,0.00,Wunderground v.1.15,2013-12-08 06:49:00,
2013-12-08 01:55:00,40.1,37.4,30.24,ENE,71,4.0,9.0,90,0.00,,,0.00,Wunderground v.1.15,2013-12-08 06:55:00,
2013-12-08 02:01:00,39.9,37.2,30.24,NE,55,4.0,14.0,90,0.00,,,0.00,Wunderground v.1.15,2013-12-08 07:01:00,
2013-12-08 02:06:00,39.9,37.5,30.24,ENE,71,3.0,14.0,91,0.00,,,0.00,Wunderground v.1.15,2013-12-08 07:06:00,
2013-12-08 02:12:00,39.8,37.4,30.24,ENE,57,3.0,14.0,91,0.00,,,0.00,Wunderground v.1.15,2013-12-08 07:12:00,
2013-12-08 02:17:00,39.6,37.2,30.24,East,98,3.0,14.0,91,0.00,,,0.00,Wunderground v.1.15,2013-12-08 07:17:00,
2013-12-08 02:23:00,39.5,37.4,30.24,ENE,74,3.0,14.0,92,0.00,,,0.00,Wunderground v.1.15,2013-12-08 07:23:00,
2013-12-08 02:28:00,39.3,37.2,30.24,NNE,31,2.0,14.0,92,0.00,,,0.00,Wunderground v.1.15,2013-12-08 07:28:00,
2013-12-08 02:34:00,39.3,37.2,30.24,NE,38,3.0,12.0,92,0.00,,,0.00,Wunderground v.1.15,2013-12-08 07:34:00,
2013-12-08 02:39:00,39.2,37.3,30.24,SE,146,3.0,12.0,93,0.00,,,0.00,Wunderground v.1.15,2013-12-08 07:39:00,
2013-12-08 02:45:00,39.1,37.2,30.24,ENE,62,3.0,12.0,93,0.00,,,0.00,Wunderground v.1.15,2013-12-08 07:45:00,
2013-12-08 02:50:00,39.1,37.2,30.25,East,80,3.0,12.0,93,0.00,,,0.00,Wunderground v.1.15,2013-12-08 07:50:00,
2013-12-08 02:56:00,38.9,37.0,30.25,NE,51,2.0,12.0,93,0.00,,,0.00,Wunderground v.1.15,2013-12-08 07:56:00,
2013-12-08 03:02:00,38.9,37.0,30.24,ENE,58,3.0,12.0,93,0.00,,,0.00,Wunderground v.1.15,2013-12-08 08:02:00,
2013-12-08 03:07:00,38.8,36.7,30.24,NE,35,4.0,13.0,92,0.00,,,0.00,Wunderground v.1.15,2013-12-08 08:07:00,
2013-12-08 03:13:00,38.8,36.7,30.24,NNE,30,3.0,13.0,92,0.00,,,0.00,Wunderground v.1.15,2013-12-08 08:13:00,
2013-12-08 03:18:00,38.8,36.7,30.24,NE,44,3.0,13.0,92,0.00,,,0.00,Wunderground v.1.15,2013-12-08 08:18:00,
2013-12-08 03:23:00,38.6,36.5,30.24,ENE,66,4.0,13.0,92,0.00,,,0.00,Wunderground v.1.15,2013-12-08 08:23:00,
2013-12-08 03:29:00,38.6,36.5,30.24,ENE,67,4.0,13.0,92,0.00,,,0.00,Wunderground v.1.15,2013-12-08 08:29:00,
2013-12-08 03:35:00,38.6,36.5,30.24,NNE,18,4.0,12.0,92,0.00,,,0.00,Wunderground v.1.15,2013-12-08 08:35:00,
2013-12-08 03:40:00,38.5,36.1,30.24,NE,36,4.0,12.0,91,0.00,,,0.00,Wunderground v.1.15,2013-12-08 08:40:00,
2013-12-08 03:46:00,38.5,36.1,30.24,NE,34,3.0,12.0,91,0.00,,,0.00,Wunderground v.1.15,2013-12-08 08:46:00,
2013-12-08 03:52:00,38.3,36.2,30.24,NNE,19,3.0,12.0,92,0.00,,,0.01,Wunderground v.1.15,2013-12-08 08:52:00,
2013-12-08 03:58:00,38.2,36.4,30.24,NE,54,3.0,12.0,93,0.00,,,0.01,Wunderground v.1.15,2013-12-08 08:58:00,
2013-12-08 04:04:00,38.0,36.2,30.24,East,90,3.0,11.0,93,0.04,,,0.02,Wunderground v.1.15,2013-12-08 09:04:00,
2013-12-08 04:09:00,38.0,36.2,30.24,NE,54,4.0,11.0,93,0.04,,,0.02,Wunderground v.1.15,2013-12-08 09:09:00,
2013-12-08 04:15:00,37.9,36.1,30.24,ENE,62,4.0,11.0,93,0.04,,,0.02,Wunderground v.1.15,2013-12-08 09:15:00,
2013-12-08 04:21:00,37.9,36.1,30.24,NNE,30,3.0,11.0,93,0.00,,,0.02,Wunderground v.1.15,2013-12-08 09:21:00,
2013-12-08 04:26:00,37.8,36.0,30.24,ENE,59,4.0,11.0,93,0.00,,,0.02,Wunderground v.1.15,2013-12-08 09:26:00,
2013-12-08 04:31:00,37.8,36.0,30.24,NE,46,4.0,11.0,93,0.00,,,0.02,Wunderground v.1.15,2013-12-08 09:31:00,
2013-12-08 04:38:00,37.8,36.0,30.24,NNW,342,4.0,13.0,93,0.00,,,0.02,Wunderground v.1.15,2013-12-08 09:38:00,
2013-12-08 04:43:00,37.6,35.5,30.24,North,350,4.0,13.0,92,0.00,,,0.02,Wunderground v.1.15,2013-12-08 09:43:00,
2013-12-08 04:50:00,37.6,35.5,30.24,NE,50,4.0,13.0,92,0.00,,,0.02,Wunderground v.1.15,2013-12-08 09:50:00,
2013-12-08 04:55:00,37.6,35.5,30.24,NE,53,3.0,13.0,92,0.00,,,0.02,Wunderground v.1.15,2013-12-08 09:55:00,
2013-12-08 05:01:00,37.5,35.4,30.23,NNW,336,4.0,13.0,92,0.00,,,0.02,Wunderground v.1.15,2013-12-08 10:01:00,
2013-12-08 05:07:00,37.3,35.2,30.23,ENE,59,4.0,14.0,92,0.00,,,0.02,Wunderground v.1.15,2013-12-08 10:07:00,
2013-12-08 05:12:00,37.3,35.5,30.23,NE,44,3.0,14.0,93,0.00,,,0.02,Wunderground v.1.15,2013-12-08 10:12:00,
2013-12-08 05:17:00,37.3,35.2,30.23,East,95,4.0,14.0,92,0.00,,,0.02,Wunderground v.1.15,2013-12-08 10:17:00,
2013-12-08 05:23:00,37.3,35.2,30.23,ENE,65,4.0,14.0,92,0.00,,,0.02,Wunderground v.1.15,2013-12-08 10:23:00,
2013-12-08 05:28:00,37.2,35.1,30.23,NE,46,4.0,14.0,92,0.00,,,0.02,Wunderground v.1.15,2013-12-08 10:28:00,
2013-12-08 05:34:00,37.2,35.1,30.23,NE,40,4.0,14.0,92,0.00,,,0.02,Wunderground v.1.15,2013-12-08 10:34:00,
2013-12-08 05:40:00,37.2,35.4,30.23,ENE,75,4.0,14.0,93,0.00,,,0.02,Wunderground v.1.15,2013-12-08 10:40:00,
2013-12-08 05:46:00,37.0,34.9,30.23,NNE,27,4.0,14.0,92,0.00,,,0.02,Wunderground v.1.15,2013-12-08 10:46:00,
2013-12-08 05:51:00,37.0,34.9,30.23,NE,41,3.0,14.0,92,0.00,,,0.02,Wunderground v.1.15,2013-12-08 10:51:00,
2013-12-08 05:57:00,37.0,34.9,30.23,ENE,62,3.0,14.0,92,0.00,,,0.02,Wunderground v.1.15,2013-12-08 10:57:00,
2013-12-08 06:02:00,37.0,34.9,30.22,NE,38,4.0,15.0,92,0.00,,,0.02,Wunderground v.1.15,2013-12-08 11:02:00,
2013-12-08 06:08:00,37.0,34.9,30.22,NE,37,5.0,15.0,92,0.00,,,0.02,Wunderground v.1.15,2013-12-08 11:08:00,
2013-12-08 06:14:00,36.9,34.8,30.22,NE,53,4.0,4.0,92,0.00,,,0.02,Wunderground v.1.15,2013-12-08 11:14:00,
2013-12-08 06:20:00,36.9,34.8,30.23,NE,49,3.0,15.0,92,0.00,,,0.02,Wunderground v.1.15,2013-12-08 11:20:00,
2013-12-08 06:25:00,36.9,34.5,30.23,NE,37,3.0,15.0,91,0.00,,,0.02,Wunderground v.1.15,2013-12-08 11:25:00,
2013-12-08 06:31:00,36.9,34.8,30.23,SW,221,4.0,15.0,92,0.00,,,0.02,Wunderground v.1.15,2013-12-08 11:31:00,
2013-12-08 06:37:00,36.9,34.8,30.23,NE,48,2.0,14.0,92,0.00,,,0.02,Wunderground v.1.15,2013-12-08 11:37:00,
2013-12-08 06:42:00,36.8,34.4,30.23,East,89,3.0,14.0,91,0.00,,,0.02,Wunderground v.1.15,2013-12-08 11:42:00,
2013-12-08 06:48:00,36.8,34.7,30.23,NE,40,2.0,14.0,92,0.00,,,0.02,Wunderground v.1.15,2013-12-08 11:48:00,
2013-12-08 06:53:00,36.6,34.5,30.23,NE,40,2.0,14.0,92,0.00,,,0.02,Wunderground v.1.15,2013-12-08 11:53:00,
2013-12-08 06:59:00,36.5,34.4,30.23,NNE,31,3.0,14.0,92,0.00,,,0.02,Wunderground v.1.15,2013-12-08 11:59:00,
2013-12-08 07:04:00,36.5,34.4,30.23,NNE,13,3.0,3.0,92,0.00,,,0.02,Wunderground v.1.15,2013-12-08 12:04:00,
2013-12-08 07:10:00,36.5,34.4,30.23,NE,53,2.0,15.0,92,0.00,,,0.02,Wunderground v.1.15,2013-12-08 12:10:00,
2013-12-08 07:17:00,36.3,34.2,30.24,NE,55,3.0,15.0,92,0.00,,,0.02,Wunderground v.1.15,2013-12-08 12:17:00,
2013-12-08 07:22:00,36.3,34.2,30.24,NE,49,3.0,15.0,92,0.00,,,0.02,Wunderground v.1.15,2013-12-08 12:22:00,
2013-12-08 07:27:00,36.3,34.2,30.24,ENE,62,2.0,15.0,92,0.00,,,0.02,Wunderground v.1.15,2013-12-08 12:27:00,
2013-12-08 07:33:00,36.3,34.2,30.23,NNE,32,2.0,15.0,92,0.00,,,0.02,Wunderground v.1.15,2013-12-08 12:33:00,
2013-12-08 07:38:00,36.2,34.1,30.23,ENE,58,2.0,10.0,92,0.00,,,0.02,Wunderground v.1.15,2013-12-08 12:38:00,
2013-12-08 07:44:00,36.3,34.2,30.23,ENE,68,1.0,10.0,92,0.00,,,0.02,Wunderground v.1.15,2013-12-08 12:44:00,
2013-12-08 07:50:00,36.2,34.1,30.23,ENE,67,2.0,10.0,92,0.00,,,0.02,Wunderground v.1.15,2013-12-08 12:50:00,
2013-12-08 07:56:00,36.2,34.1,30.23,ENE,77,3.0,10.0,92,0.00,,,0.02,Wunderground v.1.15,2013-12-08 12:56:00,
2013-12-08 08:01:00,36.2,34.4,30.22,NE,49,3.0,10.0,93,0.00,,,0.02,Wunderground v.1.15,2013-12-08 13:01:00,
2013-12-08 08:07:00,36.2,34.4,30.22,NE,44,3.0,11.0,93,0.00,,,0.02,Wunderground v.1.15,2013-12-08 13:07:00,
2013-12-08 08:12:00,36.2,34.4,30.22,NE,52,3.0,11.0,93,0.00,,,0.02,Wunderground v.1.15,2013-12-08 13:12:00,
2013-12-08 08:17:00,36.2,34.4,30.21,NNE,28,2.0,11.0,93,0.00,,,0.02,Wunderground v.1.15,2013-12-08 13:17:00,
2013-12-08 08:23:00,36.3,34.5,30.21,NE,45,1.0,11.0,93,0.00,,,0.02,Wunderground v.1.15,2013-12-08 13:23:00,
2013-12-08 08:29:00,36.3,34.5,30.21,NW,315,2.0,11.0,93,0.00,,,0.02,Wunderground v.1.15,2013-12-08 13:29:00,
2013-12-08 08:34:00,36.3,34.5,30.20,NE,55,2.0,11.0,93,0.00,,,0.02,Wunderground v.1.15,2013-12-08 13:34:00,
2013-12-08 08:40:00,36.5,34.7,30.20,NE,36,2.0,11.0,93,0.00,,,0.02,Wunderground v.1.15,2013-12-08 13:40:00,
2013-12-08 08:46:00,36.5,34.4,30.20,NE,40,2.0,11.0,92,0.00,,,0.02,Wunderground v.1.15,2013-12-08 13:46:00,
2013-12-08 08:51:00,36.5,34.4,30.21,NE,41,1.0,11.0,92,0.00,,,0.02,Wunderground v.1.15,2013-12-08 13:51:00,
2013-12-08 08:56:00,36.3,34.2,30.21,NE,52,2.0,11.0,92,0.00,,,0.02,Wunderground v.1.15,2013-12-08 13:56:00,
2013-12-08 09:02:00,36.3,34.2,30.22,NE,49,2.0,13.0,92,0.00,,,0.02,Wunderground v.1.15,2013-12-08 14:02:00,
2013-12-08 09:07:00,36.2,34.1,30.22,NE,34,2.0,13.0,92,0.00,,,0.02,Wunderground v.1.15,2013-12-08 14:07:00,
2013-12-08 09:13:00,36.2,34.1,30.22,NE,53,3.0,13.0,92,0.00,,,0.02,Wunderground v.1.15,2013-12-08 14:13:00,
2013-12-08 09:18:00,36.2,34.1,30.23,WSW,247,3.0,13.0,92,0.00,,,0.02,Wunderground v.1.15,2013-12-08 14:18:00,
2013-12-08 09:24:00,36.3,34.2,30.23,NE,40,3.0,13.0,92,0.00,,,0.02,Wunderground v.1.15,2013-12-08 14:24:00,
2013-12-08 09:29:00,36.3,34.2,30.23,ENE,75,3.0,13.0,92,0.00,,,0.02,Wunderground v.1.15,2013-12-08 14:29:00,
2013-12-08 09:36:00,36.3,34.2,30.24,ENE,59,2.0,4.0,92,0.00,,,0.02,Wunderground v.1.15,2013-12-08 14:36:00,
2013-12-08 09:41:00,36.3,34.2,30.24,SE,139,3.0,13.0,92,0.00,,,0.02,Wunderground v.1.15,2013-12-08 14:41:00,
2013-12-08 09:46:00,36.2,34.1,30.23,ENE,76,4.0,13.0,92,0.00,,,0.02,Wunderground v.1.15,2013-12-08 14:46:00,
2013-12-08 09:52:00,36.0,33.9,30.23,ESE,107,5.0,13.0,92,0.00,,,0.02,Wunderground v.1.15,2013-12-08 14:52:00,
2013-12-08 09:57:00,36.2,34.1,30.23,NE,53,4.0,13.0,92,0.00,,,0.02,Wunderground v.1.15,2013-12-08 14:57:00,
2013-12-08 10:03:00,36.2,34.4,30.23,NE,56,4.0,15.0,93,0.00,,,0.02,Wunderground v.1.15,2013-12-08 15:03:00,
2013-12-08 10:08:00,36.3,34.5,30.23,ENE,66,3.0,15.0,93,0.00,,,0.02,Wunderground v.1.15,2013-12-08 15:08:00,
2013-12-08 10:14:00,36.2,34.4,30.23,NNE,22,2.0,15.0,93,0.00,,,0.02,Wunderground v.1.15,2013-12-08 15:14:00,
2013-12-08 10:19:00,36.0,34.2,30.23,NE,41,3.0,15.0,93,0.00,,,0.02,Wunderground v.1.15,2013-12-08 15:19:00,
2013-12-08 10:25:00,36.0,34.2,30.23,East,86,3.0,15.0,93,0.00,,,0.02,Wunderground v.1.15,2013-12-08 15:25:00,
2013-12-08 10:30:00,35.9,34.1,30.23,NE,55,3.0,15.0,93,0.00,,,0.02,Wunderground v.1.15,2013-12-08 15:30:00,
2013-12-08 10:36:00,35.9,34.1,30.23,NNE,30,3.0,13.0,93,0.00,,,0.02,Wunderground v.1.15,2013-12-08 15:36:00,
2013-12-08 10:42:00,35.8,34.0,30.23,NE,43,3.0,13.0,93,0.00,,,0.02,Wunderground v.1.15,2013-12-08 15:42:00,
2013-12-08 10:47:00,35.9,34.1,30.24,NE,55,2.0,13.0,93,0.00,,,0.02,Wunderground v.1.15,2013-12-08 15:47:00,
2013-12-08 10:53:00,35.9,34.1,30.24,NE,51,2.0,13.0,93,0.00,,,0.02,Wunderground v.1.15,2013-12-08 15:53:00,
2013-12-08 10:58:00,35.9,34.1,30.24,SE,141,2.0,13.0,93,0.00,,,0.02,Wunderground v.1.15,2013-12-08 15:58:00,
2013-12-08 11:04:00,35.9,34.1,30.23,NE,49,3.0,3.0,93,0.00,,,0.02,Wunderground v.1.15,2013-12-08 16:04:00,
2013-12-08 11:10:00,35.9,34.3,30.23,ENE,61,3.0,11.0,94,0.00,,,0.02,Wunderground v.1.15,2013-12-08 16:10:00,
2013-12-08 11:15:00,36.0,34.4,30.23,NE,51,3.0,11.0,94,0.00,,,0.02,Wunderground v.1.15,2013-12-08 16:15:00,
2013-12-08 11:21:00,36.2,34.4,30.23,NNE,32,3.0,11.0,93,0.00,,,0.02,Wunderground v.1.15,2013-12-08 16:21:00,
2013-12-08 11:28:00,36.2,34.4,30.23,ENE,69,3.0,11.0,93,0.00,,,0.02,Wunderground v.1.15,2013-12-08 16:28:00,
2013-12-08 11:33:00,36.2,34.4,30.23,SSE,163,3.0,12.0,93,0.00,,,0.02,Wunderground v.1.15,2013-12-08 16:33:00,
2013-12-08 11:40:00,36.2,34.4,30.23,NE,53,3.0,12.0,93,0.00,,,0.02,Wunderground v.1.15,2013-12-08 16:40:00,
2013-12-08 11:45:00,36.2,34.6,30.23,NE,35,3.0,12.0,94,0.00,,,0.02,Wunderground v.1.15,2013-12-08 16:45:00,
2013-12-08 11:51:00,36.2,34.4,30.23,NE,42,3.0,12.0,93,0.00,,,0.02,Wunderground v.1.15,2013-12-08 16:51:00,
2013-12-08 11:56:00,36.5,34.9,30.23,ENE,74,3.0,12.0,94,0.00,,,0.02,Wunderground v.1.15,2013-12-08 16:56:00,
2013-12-08 12:02:00,36.5,34.9,30.21,NE,53,3.0,12.0,94,0.00,,,0.02,Wunderground v.1.15,2013-12-08 17:02:00,
2013-12-08 12:08:00,36.6,34.8,30.21,NNE,19,4.0,11.0,93,0.00,,,0.02,Wunderground v.1.15,2013-12-08 17:08:00,
2013-12-08 12:14:00,36.5,34.7,30.21,NNE,27,4.0,11.0,93,0.00,,,0.02,Wunderground v.1.15,2013-12-08 17:14:00,
2013-12-08 12:19:00,36.6,34.8,30.20,ENE,65,3.0,11.0,93,0.00,,,0.02,Wunderground v.1.15,2013-12-08 17:19:00,
2013-12-08 12:25:00,36.6,34.8,30.20,ENE,70,3.0,11.0,93,0.00,,,0.02,Wunderground v.1.15,2013-12-08 17:25:00,
2013-12-08 12:31:00,36.5,34.7,30.20,ENE,64,3.0,11.0,93,0.00,,,0.02,Wunderground v.1.15,2013-12-08 17:31:00,
2013-12-08 12:36:00,36.5,34.7,30.20,ESE,118,2.0,13.0,93,0.00,,,0.02,Wunderground v.1.15,2013-12-08 17:36:00,
2013-12-08 12:42:00,36.6,34.8,30.20,East,98,2.0,13.0,93,0.00,,,0.02,Wunderground v.1.15,2013-12-08 17:42:00,
2013-12-08 12:48:00,36.6,34.8,30.20,East,88,2.0,13.0,93,0.00,,,0.02,Wunderground v.1.15,2013-12-08 17:48:00,
2013-12-08 12:53:00,36.3,34.2,30.20,ENE,73,3.0,13.0,92,0.00,,,0.02,Wunderground v.1.15,2013-12-08 17:53:00,
2013-12-08 12:59:00,36.3,34.5,30.20,South,173,2.0,13.0,93,0.00,,,0.02,Wunderground v.1.15,2013-12-08 17:59:00,
2013-12-08 13:05:00,36.3,34.5,30.20,ENE,65,2.0,13.0,93,0.00,,,0.02,Wunderground v.1.15,2013-12-08 18:05:00,
2013-12-08 13:11:00,36.2,34.4,30.20,NE,40,2.0,13.0,93,0.00,,,0.02,Wunderground v.1.15,2013-12-08 18:11:00,
2013-12-08 13:16:00,36.0,34.4,30.18,ENE,73,2.0,13.0,94,0.00,,,0.02,Wunderground v.1.15,2013-12-08 18:16:00,
2013-12-08 13:22:00,35.8,34.2,30.18,East,86,3.0,13.0,94,0.00,,,0.02,Wunderground v.1.15,2013-12-08 18:22:00,
2013-12-08 13:28:00,35.9,34.3,30.18,ENE,71,3.0,13.0,94,0.00,,,0.02,Wunderground v.1.15,2013-12-08 18:28:00,
2013-12-08 13:33:00,35.9,34.3,30.17,ESE,115,3.0,13.0,94,0.00,,,0.02,Wunderground v.1.15,2013-12-08 18:33:00,
2013-12-08 13:39:00,36.2,34.9,30.17,NE,49,3.0,11.0,95,0.00,,,0.02,Wunderground v.1.15,2013-12-08 18:39:00,
2013-12-08 13:45:00,36.8,35.5,30.17,ENE,64,2.0,11.0,95,0.00,,,0.02,Wunderground v.1.15,2013-12-08 18:45:00,
2013-12-08 13:50:00,37.2,35.9,30.17,NE,51,1.0,11.0,95,0.00,,,0.02,Wunderground v.1.15,2013-12-08 18:50:00,
2013-12-08 13:56:00,37.3,36.0,30.17,ENE,57,2.0,11.0,95,0.00,,,0.02,Wunderground v.1.15,2013-12-08 18:56:00,
2013-12-08 14:02:00,37.6,36.0,30.16,NE,40,2.0,11.0,94,0.00,,,0.02,Wunderground v.1.15,2013-12-08 19:02:00,
2013-12-08 14:08:00,37.8,36.2,30.16,NE,47,2.0,11.0,94,0.00,,,0.02,Wunderground v.1.15,2013-12-08 19:08:00,
2013-12-08 14:13:00,37.8,36.0,30.16,ESE,109,2.0,11.0,93,0.00,,,0.02,Wunderground v.1.15,2013-12-08 19:13:00,
2013-12-08 14:19:00,37.5,35.7,30.16,East,81,2.0,11.0,93,0.00,,,0.02,Wunderground v.1.15,2013-12-08 19:19:00,
2013-12-08 14:26:00,37.2,35.4,30.16,ENE,67,2.0,11.0,93,0.00,,,0.02,Wunderground v.1.15,2013-12-08 19:26:00,
2013-12-08 14:31:00,37.0,35.2,30.16,West,263,2.0,11.0,93,0.00,,,0.02,Wunderground v.1.15,2013-12-08 19:31:00,
2013-12-08 14:36:00,36.9,35.1,30.16,East,81,2.0,10.0,93,0.00,,,0.02,Wunderground v.1.15,2013-12-08 19:36:00,
2013-12-08 14:42:00,36.9,35.1,30.16,ENE,65,2.0,10.0,93,0.00,,,0.02,Wunderground v.1.15,2013-12-08 19:42:00,
2013-12-08 14:47:00,36.6,34.8,30.15,ENE,64,3.0,10.0,93,0.00,,,0.02,Wunderground v.1.15,2013-12-08 19:47:00,
2013-12-08 14:54:00,36.3,34.5,30.15,ENE,70,4.0,10.0,93,0.00,,,0.02,Wunderground v.1.15,2013-12-08 19:54:00,
2013-12-08 14:59:00,36.3,34.7,30.15,North,5,3.0,10.0,94,0.00,,,0.02,Wunderground v.1.15,2013-12-08 19:59:00,
2013-12-08 15:05:00,36.3,34.7,30.15,ENE,75,2.0,2.0,94,0.00,,,0.02,Wunderground v.1.15,2013-12-08 20:05:00,
2013-12-08 15:10:00,36.5,34.9,30.15,ESE,113,1.0,15.0,94,0.00,,,0.02,Wunderground v.1.15,2013-12-08 20:10:00,
2013-12-08 15:16:00,36.3,34.7,30.15,SSE,160,1.0,15.0,94,0.00,,,0.02,Wunderground v.1.15,2013-12-08 20:16:00,
2013-12-08 15:21:00,36.0,34.4,30.15,NE,55,2.0,15.0,94,0.00,,,0.02,Wunderground v.1.15,2013-12-08 20:21:00,
2013-12-08 15:27:00,36.0,34.4,30.15,East,95,2.0,15.0,94,0.00,,,0.02,Wunderground v.1.15,2013-12-08 20:27:00,
2013-12-08 15:32:00,36.0,34.4,30.16,East,92,1.0,15.0,94,0.00,,,0.02,Wunderground v.1.15,2013-12-08 20:32:00,
2013-12-08 15:38:00,36.0,34.7,30.16,ESE,117,1.0,10.0,95,0.00,,,0.02,Wunderground v.1.15,2013-12-08 20:38:00,
2013-12-08 15:43:00,36.2,34.9,30.16,NE,44,1.0,10.0,95,0.00,,,0.02,Wunderground v.1.15,2013-12-08 20:43:00,
2013-12-08 15:49:00,36.2,34.9,30.13,NE,39,1.0,10.0,95,0.00,,,0.02,Wunderground v.1.15,2013-12-08 20:49:00,
2013-12-08 15:55:00,36.2,34.9,30.13,East,84,3.0,10.0,95,0.00,,,0.02,Wunderground v.1.15,2013-12-08 20:55:00,
2013-12-08 16:00:00,36.3,35.0,30.13,ENE,61,3.0,11.0,95,0.00,,,0.02,Wunderground v.1.15,2013-12-08 21:00:00,
2013-12-08 16:07:00,36.3,35.0,30.15,ENE,61,3.0,13.0,95,0.00,,,0.02,Wunderground v.1.15,2013-12-08 21:07:00,
2013-12-08 16:12:00,36.5,35.2,30.15,NE,51,3.0,13.0,95,0.00,,,0.02,Wunderground v.1.15,2013-12-08 21:12:00,
2013-12-08 16:17:00,36.9,35.9,30.15,NE,40,3.0,13.0,96,0.00,,,0.02,Wunderground v.1.15,2013-12-08 21:17:00,
2013-12-08 16:23:00,36.9,35.6,30.15,ENE,59,2.0,13.0,95,0.00,,,0.02,Wunderground v.1.15,2013-12-08 21:23:00,
2013-12-08 16:28:00,36.9,35.6,30.15,NE,42,2.0,13.0,95,0.00,,,0.02,Wunderground v.1.15,2013-12-08 21:28:00,
2013-12-08 16:34:00,36.5,34.9,30.15,ESE,103,2.0,9.0,94,0.00,,,0.02,Wunderground v.1.15,2013-12-08 21:34:00,
2013-12-08 16:39:00,36.2,34.9,30.15,ESE,120,2.0,9.0,95,0.00,,,0.02,Wunderground v.1.15,2013-12-08 21:39:00,
2013-12-08 16:46:00,36.2,34.9,30.15,NE,44,3.0,9.0,95,0.00,,,0.02,Wunderground v.1.15,2013-12-08 21:46:00,
2013-12-08 16:51:00,36.0,34.7,30.14,SE,137,4.0,9.0,95,0.00,,,0.02,Wunderground v.1.15,2013-12-08 21:51:00,
2013-12-08 16:58:00,35.9,34.6,30.14,East,96,3.0,9.0,95,0.00,,,0.02,Wunderground v.1.15,2013-12-08 21:58:00,
2013-12-08 17:03:00,35.6,34.3,30.16,ESE,105,2.0,10.0,95,0.00,,,0.02,Wunderground v.1.15,2013-12-08 22:03:00,
2013-12-08 17:09:00,35.3,34.0,30.16,ESE,122,3.0,10.0,95,0.00,,,0.02,Wunderground v.1.15,2013-12-08 22:09:00,
2013-12-08 17:15:00,35.3,34.3,30.16,SE,141,2.0,10.0,96,0.00,,,0.02,Wunderground v.1.15,2013-12-08 22:15:00,
2013-12-08 17:21:00,35.5,34.5,30.16,SE,126,2.0,10.0,96,0.00,,,0.02,Wunderground v.1.15,2013-12-08 22:21:00,
2013-12-08 17:27:00,35.3,34.3,30.16,East,98,3.0,10.0,96,0.00,,,0.02,Wunderground v.1.15,2013-12-08 22:27:00,
2013-12-08 17:33:00,35.5,34.5,30.17,ENE,59,2.0,10.0,96,0.00,,,0.02,Wunderground v.1.15,2013-12-08 22:33:00,
2013-12-08 17:39:00,35.6,34.6,30.17,ENE,58,2.0,10.0,96,0.00,,,0.02,Wunderground v.1.15,2013-12-08 22:39:00,
2013-12-08 17:44:00,35.5,34.5,30.17,NE,56,2.0,2.0,96,0.00,,,0.02,Wunderground v.1.15,2013-12-08 22:44:00,
2013-12-08 17:50:00,35.5,34.5,30.16,ENE,74,2.0,10.0,96,0.00,,,0.02,Wunderground v.1.15,2013-12-08 22:50:00,
2013-12-08 17:55:00,35.2,34.2,30.16,SE,130,2.0,10.0,96,0.00,,,0.02,Wunderground v.1.15,2013-12-08 22:55:00,
2013-12-08 18:01:00,35.2,34.2,30.16,ENE,76,2.0,10.0,96,0.00,,,0.02,Wunderground v.1.15,2013-12-08 23:01:00,
2013-12-08 18:06:00,35.3,34.3,30.16,NNE,19,3.0,10.0,96,0.00,,,0.02,Wunderground v.1.15,2013-12-08 23:06:00,
2013-12-08 18:12:00,35.3,34.3,30.16,NE,41,3.0,11.0,96,0.00,,,0.02,Wunderground v.1.15,2013-12-08 23:12:00,
2013-12-08 18:18:00,35.5,34.5,30.16,ENE,67,4.0,10.0,96,0.00,,,0.02,Wunderground v.1.15,2013-12-08 23:18:00,
2013-12-08 18:24:00,35.3,34.3,30.16,ENE,63,3.0,3.0,96,0.00,,,0.02,Wunderground v.1.15,2013-12-08 23:24:00,
2013-12-08 18:31:00,35.2,34.2,30.16,ENE,76,1.0,10.0,96,0.00,,,0.02,Wunderground v.1.15,2013-12-08 23:31:00,
2013-12-08 18:36:00,35.2,34.2,30.16,SE,129,1.0,13.0,96,0.00,,,0.02,Wunderground v.1.15,2013-12-08 23:36:00,
2013-12-08 18:41:00,35.2,34.2,30.16,East,83,2.0,13.0,96,0.00,,,0.02,Wunderground v.1.15,2013-12-08 23:41:00,
2013-12-08 18:47:00,35.0,34.0,30.17,ENE,67,2.0,13.0,96,0.00,,,0.02,Wunderground v.1.15,2013-12-08 23:47:00,
2013-12-08 18:53:00,34.9,33.9,30.17,ESE,103,2.0,13.0,96,0.00,,,0.02,Wunderground v.1.15,2013-12-08 23:53:00,
2013-12-08 18:59:00,34.7,33.7,30.17,NNE,31,3.0,13.0,96,0.00,,,0.02,Wunderground v.1.15,2013-12-08 23:59:00,
2013-12-08 19:05:00,34.7,33.7,30.16,ENE,59,3.0,10.0,96,0.00,,,0.02,Wunderground v.1.15,2013-12-09 00:05:00,
2013-12-08 19:11:00,34.7,33.7,30.16,East,98,4.0,10.0,96,0.00,,,0.02,Wunderground v.1.15,2013-12-09 00:11:00,
2013-12-08 19:17:00,34.7,33.7,30.16,NE,52,4.0,11.0,96,0.00,,,0.02,Wunderground v.1.15,2013-12-09 00:17:00,
2013-12-08 19:22:00,34.7,33.7,30.16,NE,44,4.0,11.0,96,0.00,,,0.02,Wunderground v.1.15,2013-12-09 00:22:00,
2013-12-08 19:28:00,34.9,33.9,30.16,East,87,3.0,10.0,96,0.00,,,0.02,Wunderground v.1.15,2013-12-09 00:28:00,
2013-12-08 19:34:00,34.6,33.6,30.17,East,101,3.0,12.0,96,0.00,,,0.02,Wunderground v.1.15,2013-12-09 00:34:00,
2013-12-08 19:39:00,34.4,33.4,30.17,NE,50,3.0,12.0,96,0.00,,,0.02,Wunderground v.1.15,2013-12-09 00:39:00,
2013-12-08 19:46:00,34.4,33.4,30.17,NE,40,4.0,12.0,96,0.00,,,0.02,Wunderground v.1.15,2013-12-09 00:46:00,
2013-12-08 19:51:00,34.3,33.3,30.17,East,85,4.0,12.0,96,0.00,,,0.02,Wunderground v.1.15,2013-12-09 00:51:00,
2013-12-08 19:56:00,34.3,33.3,30.17,East,93,3.0,12.0,96,0.00,,,0.02,Wunderground v.1.15,2013-12-09 00:56:00,
2013-12-08 20:02:00,34.1,33.1,30.18,NNE,24,3.0,12.0,96,0.00,,,0.02,Wunderground v.1.15,2013-12-09 01:02:00,
2013-12-08 20:07:00,34.1,33.3,30.18,East,90,3.0,12.0,97,0.00,,,0.02,Wunderground v.1.15,2013-12-09 01:07:00,
2013-12-08 20:14:00,34.1,33.3,30.18,ENE,71,2.0,12.0,97,0.00,,,0.02,Wunderground v.1.15,2013-12-09 01:14:00,
2013-12-08 20:19:00,34.1,33.3,30.19,ENE,65,2.0,12.0,97,0.00,,,0.02,Wunderground v.1.15,2013-12-09 01:19:00,
2013-12-08 20:25:00,34.1,33.3,30.19,ENE,60,2.0,12.0,97,0.00,,,0.02,Wunderground v.1.15,2013-12-09 01:25:00,
2013-12-08 20:30:00,34.3,33.5,30.19,ENE,62,2.0,12.0,97,0.00,,,0.02,Wunderground v.1.15,2013-12-09 01:30:00,
2013-12-08 20:36:00,34.3,33.5,30.18,ESE,105,1.0,9.0,97,0.00,,,0.02,Wunderground v.1.15,2013-12-09 01:36:00,
2013-12-08 20:41:00,34.1,33.3,30.18,NE,51,2.0,9.0,97,0.00,,,0.02,Wunderground v.1.15,2013-12-09 01:41:00,
2013-12-08 20:47:00,34.0,33.2,30.18,NE,34,2.0,9.0,97,0.00,,,0.02,Wunderground v.1.15,2013-12-09 01:47:00,
2013-12-08 20:53:00,34.1,33.3,30.18,NE,52,2.0,9.0,97,0.00,,,0.02,Wunderground v.1.15,2013-12-09 01:53:00,
2013-12-08 20:58:00,34.0,33.2,30.18,NE,52,2.0,9.0,97,0.00,,,0.02,Wunderground v.1.15,2013-12-09 01:58:00,
2013-12-08 21:05:00,34.1,33.3,30.19,East,80,2.0,2.0,97,0.00,,,0.02,Wunderground v.1.15,2013-12-09 02:05:00,
2013-12-08 21:10:00,33.8,33.0,30.19,East,98,2.0,7.0,97,0.00,,,0.02,Wunderground v.1.15,2013-12-09 02:10:00,
2013-12-08 21:15:00,33.8,33.0,30.19,ENE,61,2.0,7.0,97,0.00,,,0.02,Wunderground v.1.15,2013-12-09 02:15:00,
2013-12-08 21:21:00,34.0,33.2,30.18,East,84,2.0,7.0,97,0.00,,,0.02,Wunderground v.1.15,2013-12-09 02:21:00,
2013-12-08 21:26:00,33.8,33.0,30.18,NE,54,2.0,7.0,97,0.00,,,0.02,Wunderground v.1.15,2013-12-09 02:26:00,
2013-12-08 21:33:00,33.8,33.0,30.18,ENE,71,2.0,9.0,97,0.00,,,0.02,Wunderground v.1.15,2013-12-09 02:33:00,
2013-12-08 21:38:00,34.1,33.3,30.18,NE,44,2.0,9.0,97,0.00,,,0.02,Wunderground v.1.15,2013-12-09 02:38:00,
2013-12-08 21:44:00,34.1,33.3,30.18,ENE,74,1.0,9.0,97,0.00,,,0.02,Wunderground v.1.15,2013-12-09 02:44:00,
2013-12-08 21:50:00,34.1,33.3,30.17,NE,48,1.0,9.0,97,0.00,,,0.02,Wunderground v.1.15,2013-12-09 02:50:00,
2013-12-08 21:55:00,34.1,33.3,30.17,ENE,65,1.0,9.0,97,0.00,,,0.02,Wunderground v.1.15,2013-12-09 02:55:00,
2013-12-08 22:01:00,34.1,33.3,30.17,East,96,2.0,9.0,97,0.00,,,0.02,Wunderground v.1.15,2013-12-09 03:01:00,
2013-12-08 22:06:00,34.1,33.3,30.17,East,90,2.0,7.0,97,0.00,,,0.02,Wunderground v.1.15,2013-12-09 03:06:00,
2013-12-08 22:12:00,34.3,33.5,30.17,ESE,103,1.0,7.0,97,0.00,,,0.02,Wunderground v.1.15,2013-12-09 03:12:00,
2013-12-08 22:18:00,34.1,33.3,30.15,NNE,32,2.0,7.0,97,0.00,,,0.02,Wunderground v.1.15,2013-12-09 03:18:00,
2013-12-08 22:23:00,34.1,33.3,30.15,ENE,58,2.0,7.0,97,0.00,,,0.02,Wunderground v.1.15,2013-12-09 03:23:00,
2013-12-08 22:30:00,34.0,33.2,30.15,East,90,2.0,7.0,97,0.00,,,0.02,Wunderground v.1.15,2013-12-09 03:30:00,
2013-12-08 22:35:00,33.8,33.0,30.17,ESE,105,2.0,7.0,97,0.00,,,0.02,Wunderground v.1.15,2013-12-09 03:35:00,
2013-12-08 22:41:00,33.8,33.0,30.17,NNE,15,2.0,7.0,97,0.00,,,0.02,Wunderground v.1.15,2013-12-09 03:41:00,
2013-12-08 22:47:00,34.0,33.5,30.15,NE,43,2.0,7.0,98,0.00,,,0.02,Wunderground v.1.15,2013-12-09 03:47:00,
2013-12-08 22:53:00,34.0,33.5,30.15,ENE,65,2.0,7.0,98,0.00,,,0.02,Wunderground v.1.15,2013-12-09 03:53:00,
2013-12-08 22:58:00,33.8,33.0,30.15,ENE,65,2.0,7.0,97,0.00,,,0.02,Wunderground v.1.15,2013-12-09 03:58:00,
2013-12-08 23:04:00,33.8,33.3,30.13,NE,36,2.0,10.0,98,0.00,,,0.02,Wunderground v.1.15,2013-12-09 04:04:00,
2013-12-08 23:09:00,34.1,33.6,30.13,East,90,2.0,10.0,98,0.00,,,0.02,Wunderground v.1.15,2013-12-09 04:09:00,
2013-12-08 23:15:00,34.3,33.8,30.13,ENE,62,2.0,10.0,98,0.00,,,0.02,Wunderground v.1.15,2013-12-09 04:15:00,
2013-12-08 23:20:00,34.3,33.8,30.13,East,89,1.0,10.0,98,0.00,,,0.02,Wunderground v.1.15,2013-12-09 04:20:00,
2013-12-08 23:26:00,34.1,33.6,30.13,NE,54,1.0,10.0,98,0.00,,,0.02,Wunderground v.1.15,2013-12-09 04:26:00,
2013-12-08 23:32:00,34.0,33.5,30.12,ENE,59,2.0,10.0,98,0.00,,,0.02,Wunderground v.1.15,2013-12-09 04:32:00,
2013-12-08 23:37:00,34.0,33.5,30.12,NE,41,2.0,6.0,98,0.00,,,0.02,Wunderground v.1.15,2013-12-09 04:37:00,
2013-12-08 23:43:00,33.8,33.3,30.12,NE,40,3.0,6.0,98,0.00,,,0.02,Wunderground v.1.15,2013-12-09 04:43:00,
2013-12-08 23:49:00,34.0,33.5,30.12,ENE,67,2.0,6.0,98,0.00,,,0.02,Wunderground v.1.15,2013-12-09 04:49:00,
2013-12-08 23:54:00,34.0,33.5,30.12,NNE,29,1.0,6.0,98,0.00,,,0.02,Wunderground v.1.15,2013-12-09 04:54:00,